Location: Newark
(48.5667°N, 3.3000°E)
Time: 04:52:58
(UTC+00:00)

OTV 5 (USA 277) - Pass Details

Date: 28 October 2019
Orbit: 310 x 324 km, 54.5° (Epoch: 17 October)

Event Time Altitude Azimuth Distance (km) Brightness Sun altitude
Rises 18:36:21 0° 216° (SW) 2,053 ? -20.7°
Reaches altitude 10° 18:38:25 10° 206° (SSW) 1,228 ? -21.0°
Enters shadow 18:38:40 12° 203° (SSW) 1,129 ? -21.1°
